Location: Unspecified
(47.1121°N, 116.3927°W)
Time: 08:12:55
(UTC-08:00)

CZ-3 Stage 3 - Visible Passes

Search period start: 19 November 2018 00:00
Search period end: 29 November 2018 00:00
Orbit: 380 x 34812 km, 30.3° (Epoch: 17 November)

Date Brightness Start Highest point End Pass type
(mag) Time Alt. Az. Time Alt. Az. Time Alt. Az.
19 Nov 8.3 16:31:46 10° WSW 18:50:11 42° W 01:14:06 12° WSW visible
20 Nov 7.9 12:42:11 10° SSW 17:02:11 70° S 21:46:30 35° S visible
21 Nov 8.2 09:19:19 10° SE 15:55:44 50° ESE 18:16:56 10° ESE visible
22 Nov 8.3 16:21:08 10° WSW 18:39:04 42° W 01:07:02 11° WSW visible
23 Nov 7.8 12:31:46 10° SSW 16:50:17 70° S 21:39:26 30° S visible
24 Nov 8.2 09:08:12 10° SE 15:44:23 49° ESE 18:06:25 10° ESE visible
25 Nov 8.2 16:10:31 10° WSW 18:27:55 43° W 00:56:38 10° WSW visible
26 Nov 7.8 12:21:23 10° SSW 16:38:23 70° S 21:32:24 25° S visible
27 Nov 8.2 08:57:09 10° SE 15:33:05 49° ESE 17:55:55 10° ESE visible
